Weather in Bobrovy Dvory

Russia / Belgorod Oblast     51°11′14″N   37°22′28″E
temp.,
°C
wind,
m/s
gust,
m/s
humid.,
%
clouds,
%
prec.,
mm/h
press.,
hPa
HPBL,
m
17 may, mon
mon1700:00+16ene4108720 0.9 1010175
03:00+15e4109145 0.9 1009173
06:00+15ese514815 0.0 1007233
09:00+21ese7166143 0.0 1007693
12:00+25ese9165236 0.0 10061609
15:00+25se915554 0.0 10051540
18:00+22se8146260 0.0 1005911
21:00+19se613714 0.0 1006310
18 may, tue
tue1800:00+16se4108628 0.0 1006169
03:00+15sse34939 0.0 100653
06:00+15se36918 0.0 1006151
09:00+19sse5774100 0.0 1006630
12:00+21sse4665100 0.1 10051044
15:00+18sse478061 1.7 1006327
18:00+18sse51081100 0.6 1006543
21:00+15sse499383 0.6 1006201
19 may, wed
wed1900:00+13sse3794100 0.0 1006142
03:00+13se3695100 0.0 1006140
06:00+13se38945 0.0 1007247
09:00+17sse57756 0.0 1006829
12:00+20sse686495 0.4 10061454
15:00+19sse677099 1.1 10061051
18:00+15s3691100 1.0 1007389
21:00+13s3696100 1.8 1007298
20 may, thu
thu2000:00+11sse23958 0.3 100751
03:00+10s359745 0.3 100695
06:00+11se3496100 0.0 1006140
09:00+15sse5682100 2.3 1006357
12:00+17ssw567135 2.3 10061128
15:00+16sw6877100 4.8 1007967
18:00+16wsw611787 0.6 10081208
21:00+11sw37921 0.6 1009135
21 may, fri
fri2100:00+12s4990100 0.0 1009299
03:00+12ssw61287100 0.1 1009637
06:00+12sw71392100 0.9 1011918
09:00+13sw598837 0.9 1012730
12:00+16wsw7107683 0.9 10121177
15:00+19wsw695849 1.1 10131747
18:00+16nw556858 0.0 1014791
21:00+12nnw4982100 0.0 1017220